Rhinelander, WI

11:32 PM CDT on March 23, 2017 (GMT -0500)
Rhinelander-Oneida County

Weather History for KRHI - October, 2012

Change the Weather History Date:

Tuesday, October 16, 2012

  Actual Average Record
Temperature  
Mean Temperature 49 °F 44 °F  
Max Temperature 58 °F 54 °F 81 °F (1968)
Min Temperature 40 °F 34 °F 15 °F (2002)
Degree Days  
Heating Degree Days 16 21  
Month to date heating degree days 358 301  
Since 1 July heating degree days 788 733  
Cooling Degree Days 0 0  
Month to date cooling degree days 0 0  
Year to date cooling degree days 373 259  
Moisture  
Dew Point 41 °F    
Average Humidity 76    
Maximum Humidity 93    
Minimum Humidity 59    
Precipitation  
Precipitation 0.01 in 0.10 in 1.82 in (1911)
Month to date precipitation 0.70 1.79  
Year to date precipitation 25.06 26.87  
Snow  
Snow 0.00 in - 0.60 in (1969)
Month to date snowfall T  
Since 1 July snowfall T  
Since 1 September snowfall T  
Snow Depth 0.00 in    
Sea Level Pressure  
Sea Level Pressure 29.66 in    
Wind  
Wind Speed 6 mph (SE)    
Max Wind Speed 15 mph    
Max Gust Speed 23 mph    
Visibility 10 miles    
Events Rain    
T = Trace of Precipitation, MM = Missing Value Source: NWS Daily Summary

Daily Weather History Graph

Daily Weather History Graph

Search for Another Location

Airport or City:

Trip Planner

Search our weather history database for the weather conditions in past years. The results will help you decide how hot, cold, wet, or windy it might be!

Date:

Astronomy

Oct. 16, 2012 Rise Set
Actual Time 7:16 AM CDT 6:09 PM CDT
Civil Twilight 6:46 AM CDT 6:39 PM CDT
Nautical Twilight 6:11 AM CDT 7:13 PM CDT
Astronomical Twilight 5:37 AM CDT 7:48 PM CDT
Moon 8:45 AM CDT (10/16) 6:46 PM CDT (10/16)
Length of Visible Light 11h 53m
Length of Day
10h 53m
New Moon, 2% of the Moon is Illuminated
Oct 16
New Moon
Oct 21
First Quarter
Oct 29
Full
Nov 6
Last Quarter
Nov 13
New

Hourly Weather History & Observations

Time (CDT) Temp. Windchill Dew Point Humidity Pressure Visibility Wind Dir Wind Speed Gust Speed Precip Events Conditions
12:53 AM 41.0 °F - 35.1 °F 79% 29.88 in 10.0 mi Calm Calm - N/A   Overcast
1:53 AM 43.0 °F - 35.1 °F 74% 29.86 in 10.0 mi Calm Calm - N/A   Overcast
3:53 AM 43.0 °F 40.3 °F 37.0 °F 80% 29.83 in 10.0 mi SE 4.6 mph - 0.01 in   Overcast
4:53 AM 43.0 °F 40.3 °F 37.9 °F 82% 29.82 in 10.0 mi SE 4.6 mph - 0.00 in   Overcast
5:53 AM 44.1 °F 41.5 °F 37.9 °F 79% 29.81 in 10.0 mi SE 4.6 mph - 0.00 in   Overcast
6:53 AM 45.0 °F 41.2 °F 37.9 °F 76% 29.78 in 10.0 mi SSE 6.9 mph - 0.00 in Rain Light Rain
7:53 AM 45.0 °F 41.2 °F 39.0 °F 80% 29.77 in 10.0 mi South 6.9 mph - 0.00 in Rain Light Rain
8:53 AM 46.0 °F 43.1 °F 39.0 °F 76% 29.75 in 10.0 mi SSE 5.8 mph - 0.00 in   Overcast
9:53 AM 48.9 °F - 39.9 °F 71% 29.72 in 10.0 mi SSE 6.9 mph - N/A   Overcast
10:53 AM 51.1 °F - 39.9 °F 66% 29.69 in 10.0 mi South 10.4 mph - N/A   Overcast
11:53 AM 55.0 °F - 41.0 °F 59% 29.68 in 10.0 mi South 13.8 mph - N/A   Overcast
1:53 PM 55.9 °F - 42.1 °F 60% 29.62 in 10.0 mi SSW 9.2 mph - 0.00 in   Overcast
2:53 PM 55.9 °F - 44.1 °F 64% 29.59 in 10.0 mi SSE 9.2 mph - N/A   Overcast
3:53 PM 57.0 °F - 44.1 °F 62% 29.55 in 10.0 mi South 12.7 mph 20.7 mph N/A   Overcast
4:53 PM 55.9 °F - 44.1 °F 64% 29.54 in 10.0 mi South 4.6 mph - N/A   Scattered Clouds
5:53 PM 54.0 °F - 44.1 °F 69% 29.52 in 10.0 mi ESE 9.2 mph - N/A   Partly Cloudy
6:53 PM 50.0 °F - 43.0 °F 77% 29.53 in 10.0 mi ESE 4.6 mph - N/A   Clear
7:53 PM 52.0 °F - 44.1 °F 74% 29.54 in 10.0 mi Calm Calm - N/A   Mostly Cloudy
8:53 PM 51.1 °F - 43.0 °F 74% 29.52 in 10.0 mi ESE 4.6 mph - N/A   Clear
9:53 PM 48.9 °F - 43.0 °F 80% 29.52 in 10.0 mi ESE 3.5 mph - N/A   Clear
10:53 PM 45.0 °F - 41.0 °F 86% 29.53 in 10.0 mi Calm Calm - N/A   Clear
11:53 PM 41.0 °F 37.1 °F 39.0 °F 93% 29.49 in 7.0 mi East 5.8 mph - N/A   Clear